Le nostre stazioni meteo in Italia

Pubblicità
Il mio iltempo24.it
Monte Cimone, Italia (16134): Temperatura & dewpoint: 13.06.2019 01:00:00 - 19.06.2019 01:00:00 (CEST)Monte Cimone, Italia (16134): velocità del vento: 13.06.2019 01:00:00 - 19.06.2019 01:00:00 (CEST)Monte Cimone, Italia (16134): direzione del vento: 13.06.2019 01:00:00 - 19.06.2019 01:00:00 (CEST)Monte Cimone, Italia (16134): visibility: 13.06.2019 01:00:00 - 19.06.2019 01:00:00 (CEST)Monte Cimone, Italia (16134): ore di luce: 13.06.2019 01:00:00 - 19.06.2019 01:00:00 (CEST)
Data & Tempo tt [°C] td [°C] ff [km/h] ff [kn] dd vv [km] sd [min]
19.06.2019 01:00:00 - - - - - - -
19.06.2019 00:00:00 11,8 3,8 9 5 SSO 20 -
18.06.2019 23:00:00 12,2 7,1 8 4 SO 20 -
18.06.2019 22:00:00 12,0 1,0 11 6 SO 20 -
18.06.2019 21:00:00 12,2 6,5 16 9 S 20 0
18.06.2019 20:00:00 13,2 8,3 0 0 N 20 0
18.06.2019 19:00:00 12,8 10,4 5 3 SSO 10 0
18.06.2019 18:00:00 12,6 10,1 16 9 SSE 10 0
18.06.2019 17:00:00 13,2 9,7 18 10 SE 10 0
18.06.2019 16:00:00 13,6 9,5 11 6 ESE 20 30
18.06.2019 15:00:00 13,6 8,2 11 6 E 20 30
18.06.2019 14:00:00 13,8 8,4 13 7 NNE 20 42
18.06.2019 13:00:00 13,6 8,7 11 6 NE 30 48
18.06.2019 12:00:00 13,2 7,9 9 5 ENE 30 54
18.06.2019 11:00:00 12,8 7,5 5 3 E 30 60
18.06.2019 10:00:00 12,0 7,7 9 5 E 30 60
18.06.2019 09:00:00 11,0 3,5 9 5 E 30 60
18.06.2019 08:00:00 11,0 3,1 9 5 E 30 60
18.06.2019 07:00:00 10,4 2,8 8 4 E 30 42
18.06.2019 06:00:00 9,8 4,4 11 6 E 30 -
18.06.2019 05:00:00 10,0 6,4 21 11 E 30 -
18.06.2019 04:00:00 10,0 4,8 26 14 ENE 30 -
18.06.2019 03:00:00 - - - - - - -
18.06.2019 02:00:00 10,2 4,1 26 14 ENE 30 -
18.06.2019 01:00:00 10,4 3,0 26 14 NE 30 -
18.06.2019 00:00:00 11,0 1,3 26 14 NE 30 -
17.06.2019 23:00:00 10,8 3,4 24 13 ENE 30 -
17.06.2019 22:00:00 10,8 4,9 28 15 NE 20 -
17.06.2019 21:00:00 11,0 7,3 31 17 NE 20 -
17.06.2019 20:00:00 11,0 7,7 24 13 NE 10 0
17.06.2019 19:00:00 10,2 9,9 29 16 NE - 0
17.06.2019 18:00:00 10,4 8,2 28 15 NE 10 0
17.06.2019 17:00:00 11,8 11,5 24 13 ENE - 0
17.06.2019 16:00:00 10,8 4,7 26 14 E 2,0 0
17.06.2019 15:00:00 11,4 10,1 8 4 SSE 0,2 0
17.06.2019 14:00:00 12,4 8,5 13 7 NNE 10 18
17.06.2019 13:00:00 12,4 7,3 18 10 NE 20 60
17.06.2019 12:00:00 12,2 8,7 18 10 NE 20 60
17.06.2019 11:00:00 12,2 7,9 18 10 NE 30 60
17.06.2019 10:00:00 11,8 6,7 24 13 NNE 30 60
17.06.2019 09:00:00 11,2 7,5 34 18 NNE 20 60
17.06.2019 08:00:00 10,4 6,2 29 16 NNE 20 60
17.06.2019 07:00:00 10,2 6,5 29 16 NNE 10 12
17.06.2019 06:00:00 10,0 6,7 34 18 NNE 10 -
17.06.2019 05:00:00 10,0 9,2 26 14 NE - -
17.06.2019 04:00:00 - - - - - - -
17.06.2019 03:00:00 10,4 8,0 24 13 ENE 20 -
17.06.2019 02:00:00 10,8 -0,7 18 10 ENE 20 -
17.06.2019 01:00:00 10,4 8,3 18 10 NE 10 -
17.06.2019 00:00:00 10,8 9,2 24 13 NE 10 -
16.06.2019 23:00:00 11,4 10,6 18 10 NE - -
16.06.2019 22:00:00 12,8 8,3 9 5 N 20 -
16.06.2019 21:00:00 12,8 7,9 4 2 NE 20 0
16.06.2019 20:00:00 13,6 5,0 8 4 SSO 20 0
16.06.2019 19:00:00 13,6 7,6 4 2 SSO 20 42
16.06.2019 18:00:00 13,0 10,0 8 4 SSE 10 0
16.06.2019 17:00:00 13,0 11,4 11 6 ESE - 0
16.06.2019 16:00:00 12,6 11,0 21 11 ENE - 0
16.06.2019 15:00:00 14,0 9,0 9 5 ENE 20 12
16.06.2019 14:00:00 14,2 8,2 8 4 NE 20 0
16.06.2019 13:00:00 14,6 7,4 9 5 NE 30 42
16.06.2019 12:00:00 15,4 6,4 5 3 NE 30 60
16.06.2019 11:00:00 14,8 0,6 4 2 ENE 30 60
16.06.2019 10:00:00 14,0 -2,4 4 2 SSO 30 60
16.06.2019 09:00:00 13,2 -1,5 5 3 SSO 30 60
16.06.2019 08:00:00 12,8 -1,2 0 0 N 30 60
16.06.2019 07:00:00 12,0 -1,5 9 5 OSO 30 30
16.06.2019 06:00:00 11,6 -0,2 18 10 O 30 0
16.06.2019 05:00:00 12,4 -2,3 24 13 O 30 -
16.06.2019 04:00:00 12,4 -6,1 21 11 O 30 -
16.06.2019 03:00:00 12,8 -7,3 22 12 SO 30 -
16.06.2019 02:00:00 12,6 -5,9 13 7 SO 30 -
16.06.2019 01:00:00 12,6 1,6 31 17 SO 30 -
16.06.2019 00:00:00 12,8 1,2 13 7 SSO 30 -
15.06.2019 23:00:00 12,8 2,4 16 9 SO 30 -
15.06.2019 22:00:00 12,8 1,5 8 4 NNO 30 -
15.06.2019 21:00:00 13,6 6,5 8 4 NO 30 -
15.06.2019 20:00:00 15,6 7,4 11 6 SO 30 0
15.06.2019 19:00:00 16,6 6,1 9 5 OSO 30 60
15.06.2019 18:00:00 17,2 5,2 9 5 OSO 30 60
15.06.2019 17:00:00 18,0 8,8 8 4 OSO 30 60
15.06.2019 16:00:00 17,6 10,0 8 4 SO 30 60
15.06.2019 15:00:00 17,6 11,2 8 4 S 30 60
15.06.2019 14:00:00 17,4 8,0 8 4 OSO 30 60
15.06.2019 13:00:00 16,4 9,8 5 3 OSO 30 60
15.06.2019 12:00:00 15,8 8,5 5 3 OSO 30 60
15.06.2019 11:00:00 15,2 8,4 5 3 OSO 30 60
15.06.2019 10:00:00 14,0 8,2 5 3 ONO 30 60
15.06.2019 09:00:00 12,6 8,7 9 5 SSO 50 60
15.06.2019 08:00:00 12,2 8,5 13 7 SSO 50 60
15.06.2019 07:00:00 12,6 9,3 29 16 SO 50 12
15.06.2019 06:00:00 13,0 8,3 21 11 SO 50 -
15.06.2019 05:00:00 13,0 7,7 21 11 SO 50 -
15.06.2019 04:00:00 13,0 7,2 57 31 SSO 50 -
15.06.2019 03:00:00 13,0 7,7 57 31 NO 50 -
15.06.2019 02:00:00 13,0 7,0 29 16 SO 50 -
15.06.2019 01:00:00 13,0 5,7 42 23 SO 50 -
15.06.2019 00:00:00 13,0 4,4 46 25 SO 50 -
14.06.2019 23:00:00 13,0 4,9 68 37 SSO 50 -
14.06.2019 22:00:00 13,4 4,6 54 29 SSO 50 -
14.06.2019 21:00:00 13,4 6,3 28 15 OSO 50 -
14.06.2019 20:00:00 13,4 7,6 76 41 S 50 0
14.06.2019 19:00:00 14,2 9,8 59 32 S 50 12
14.06.2019 18:00:00 15,0 9,6 54 29 S 50 30
14.06.2019 17:00:00 15,6 6,6 67 36 S 50 48
14.06.2019 16:00:00 16,0 0,6 50 27 SSO 50 60
14.06.2019 15:00:00 16,0 1,7 50 27 SSO 50 60
14.06.2019 14:00:00 16,4 -0,3 67 36 S 50 60
14.06.2019 13:00:00 16,2 -0,5 44 24 SSO 50 60
14.06.2019 12:00:00 16,2 -1,4 48 26 SSO 50 60
14.06.2019 11:00:00 16,0 -3,0 48 26 SSO 50 60
14.06.2019 10:00:00 15,8 -2,7 21 11 SSO - 60
14.06.2019 09:00:00 14,6 -2,8 15 8 SSO 50 60
14.06.2019 08:00:00 14,0 -2,9 15 8 OSO 50 30
14.06.2019 07:00:00 13,2 -3,1 21 11 OSO 50 -
14.06.2019 06:00:00 13,0 -2,9 31 17 SO 50 -
14.06.2019 05:00:00 13,0 -2,9 48 26 SSO 50 -
14.06.2019 04:00:00 12,8 -1,5 46 25 SSO 50 -
14.06.2019 03:00:00 - - - - - - -
14.06.2019 02:00:00 12,2 -1,7 24 13 SO 50 -
14.06.2019 01:00:00 12,0 -2,2 11 6 SO 50 -
14.06.2019 00:00:00 12,0 -1,9 8 4 NNO 50 -
13.06.2019 23:00:00 12,0 -1,9 9 5 ONO 50 -
13.06.2019 22:00:00 12,0 -1,9 9 5 OSO 50 -
13.06.2019 21:00:00 12,4 -1,5 11 6 SO 50 -
13.06.2019 20:00:00 13,0 -0,3 13 7 OSO 50 0
13.06.2019 19:00:00 14,2 -0,3 8 4 S 50 60
13.06.2019 18:00:00 14,4 -0,1 8 4 NE 50 60
13.06.2019 17:00:00 14,8 -0,5 9 5 O 50 60
13.06.2019 16:00:00 15,0 -0,3 9 5 ONO 50 60
13.06.2019 15:00:00 14,2 -0,3 9 5 O 50 60
13.06.2019 14:00:00 13,8 -0,6 11 6 OSO 50 60
13.06.2019 13:00:00 13,0 -1,0 13 7 O 50 60
13.06.2019 12:00:00 12,6 -1,0 13 7 O 50 60
13.06.2019 11:00:00 12,0 -0,8 11 6 O 50 60
13.06.2019 10:00:00 11,6 0,4 13 7 O 50 60
13.06.2019 09:00:00 10,8 0,2 11 6 OSO 50 60
13.06.2019 08:00:00 10,6 -2,1 9 5 O 50 60
13.06.2019 07:00:00 10,0 -5,9 15 8 O 50 -
13.06.2019 06:00:00 9,2 -12,6 11 6 SSO 50 -
13.06.2019 05:00:00 9,2 -14,6 16 9 SSO 50 -
13.06.2019 04:00:00 9,6 -9,0 22 12 SO 50 -
13.06.2019 03:00:00 9,4 -5,3 24 13 SSO 50 -
13.06.2019 02:00:00 9,0 -1,4 26 14 SSO 50 -
13.06.2019 01:00:00 9,6 2,2 18 10 SSO 50 -

tt = Temperatura
td = dewpoint
ff = velocità del vento
dd = direzione del vento
vv = visibility
sd = ore di luce

Stazioni seguenti

WeatherPro
AMSI
MeteoEarth